UAL1314 KORD-KDCA

Flight info

Callsign UAL1314
Flight time 1h 14m
Altitude 39000
Route MOBLE ADIME OTENS ANEWA JERRI NUSMM BUCKO FRDMM6
Aircraft A319/M-SDE3FGHIRWY/LB1

Departure

Time 2026-05-07 19:17
Airport Chicago O'Hare International Airport (KORD)

Arrival

Time 2026-05-07 20:31
Airport Ronald Reagan Washington National Airport (KDCA)
Time Latitude Longitude Altitude Speed Heading
2026-05-07 18:43 41.97496 -87.90875 673 ft 0 kts 160°
2026-05-07 19:06 41.97510 -87.90881 673 ft 4 kts 159°
2026-05-07 19:07 41.97535 -87.90893 670 ft 4 kts 171°
2026-05-07 19:07 41.97560 -87.90891 671 ft 4 kts 216°
2026-05-07 19:07 41.97571 -87.90873 672 ft 0 kts 250°
2026-05-07 19:10 41.97568 -87.90886 672 ft 4 kts 250°
2026-05-07 19:10 41.97550 -87.90948 671 ft 10 kts 249°
2026-05-07 19:10 41.97522 -87.91047 670 ft 10 kts 243°
2026-05-07 19:10 41.97447 -87.91075 671 ft 13 kts 212°
2026-05-07 19:11 41.97372 -87.91049 672 ft 13 kts 136°
2026-05-07 19:11 41.97297 -87.90960 671 ft 11 kts 138°
2026-05-07 19:11 41.97236 -87.90880 670 ft 14 kts 135°
2026-05-07 19:11 41.97178 -87.90770 668 ft 16 kts 118°
2026-05-07 19:12 41.97150 -87.90606 665 ft 20 kts 94°
2026-05-07 19:12 41.97141 -87.90418 667 ft 20 kts 92°
2026-05-07 19:12 41.97137 -87.90226 667 ft 21 kts 90°
2026-05-07 19:12 41.97138 -87.90023 668 ft 21 kts 90°
2026-05-07 19:13 41.97157 -87.89832 671 ft 21 kts 67°
2026-05-07 19:13 41.97178 -87.89728 669 ft 8 kts 129°
2026-05-07 19:13 41.97129 -87.89673 668 ft 10 kts 128°
2026-05-07 19:13 41.97098 -87.89573 668 ft 13 kts 102°
2026-05-07 19:14 41.97082 -87.89470 668 ft 9 kts 119°
2026-05-07 19:14 41.97050 -87.89390 666 ft 12 kts 103°
2026-05-07 19:14 41.97045 -87.89252 663 ft 17 kts 89°
2026-05-07 19:14 41.97044 -87.89082 660 ft 20 kts 89°
2026-05-07 19:15 41.97044 -87.88884 657 ft 23 kts 91°
2026-05-07 19:15 41.97044 -87.88664 657 ft 24 kts 88°
2026-05-07 19:15 41.97045 -87.88442 658 ft 24 kts 89°
2026-05-07 19:15 41.97046 -87.88218 662 ft 24 kts 90°
2026-05-07 19:16 41.97044 -87.88084 663 ft 13 kts 99°
2026-05-07 19:16 41.96978 -87.88005 664 ft 12 kts 165°
2026-05-07 19:16 41.96856 -87.88139 662 ft 50 kts 221°
2026-05-07 19:16 41.96431 -87.88641 668 ft 110 kts 221°
2026-05-07 19:17 41.95766 -87.89422 979 ft 130 kts 221°
2026-05-07 19:17 41.95083 -87.90232 1582 ft 132 kts 224°
2026-05-07 19:17 41.94371 -87.91035 2198 ft 136 kts 215°
2026-05-07 19:17 41.93376 -87.91201 2597 ft 167 kts 174°
2026-05-07 19:18 41.92191 -87.90708 2930 ft 189 kts 168°
2026-05-07 19:18 41.90883 -87.90027 3260 ft 217 kts 158°
2026-05-07 19:18 41.89731 -87.88498 3593 ft 255 kts 125°
2026-05-07 19:18 41.88942 -87.86232 4250 ft 276 kts 116°
2026-05-07 19:19 41.88375 -87.83691 5197 ft 289 kts 97°
2026-05-07 19:19 41.88425 -87.80998 6200 ft 294 kts 86°
2026-05-07 19:19 41.88593 -87.78209 7181 ft 298 kts 85°
2026-05-07 19:19 41.88803 -87.75449 8104 ft 303 kts 83°
2026-05-07 19:20 41.89046 -87.72613 9017 ft 309 kts 82°
2026-05-07 19:20 41.89302 -87.69732 9904 ft 315 kts 83°
2026-05-07 19:20 41.89570 -87.66747 10406 ft 333 kts 83°
2026-05-07 19:20 41.89855 -87.63545 10698 ft 356 kts 83°
2026-05-07 19:21 41.90147 -87.60184 11279 ft 367 kts 83°
2026-05-07 19:21 41.90439 -87.56750 12012 ft 373 kts 83°
2026-05-07 19:21 41.90731 -87.53261 12726 ft 380 kts 83°
2026-05-07 19:21 41.91025 -87.49712 13442 ft 386 kts 82°
2026-05-07 19:22 41.91324 -87.46106 14112 ft 391 kts 82°
2026-05-07 19:22 41.91625 -87.42448 14753 ft 396 kts 82°
2026-05-07 19:22 41.91929 -87.38749 15413 ft 401 kts 82°
2026-05-07 19:22 41.92239 -87.35001 16076 ft 406 kts 82°
2026-05-07 19:23 41.92550 -87.31265 16726 ft 411 kts 83°
2026-05-07 19:23 41.92867 -87.27427 17358 ft 417 kts 83°
2026-05-07 19:23 41.93183 -87.23530 18008 ft 422 kts 83°
2026-05-07 19:23 41.93500 -87.19589 18605 ft 427 kts 83°
2026-05-07 19:24 41.93817 -87.15599 19191 ft 432 kts 82°
2026-05-07 19:24 41.94137 -87.11564 19794 ft 436 kts 82°
2026-05-07 19:24 41.94461 -87.07501 20396 ft 440 kts 82°
2026-05-07 19:24 41.94718 -87.03375 20991 ft 445 kts 84°
2026-05-07 19:25 41.94854 -86.99197 21610 ft 449 kts 86°
2026-05-07 19:25 41.94899 -86.94993 22321 ft 450 kts 88°
2026-05-07 19:25 41.94904 -86.90775 22919 ft 453 kts 88°
2026-05-07 19:25 41.94904 -86.86523 23485 ft 457 kts 88°
2026-05-07 19:26 41.94919 -86.82242 23943 ft 460 kts 88°
2026-05-07 19:26 41.94958 -86.77927 24351 ft 465 kts 87°
2026-05-07 19:26 41.95019 -86.73559 24738 ft 470 kts 86°
2026-05-07 19:26 41.95090 -86.69150 25113 ft 475 kts 86°
2026-05-07 19:27 41.95160 -86.64701 25485 ft 479 kts 87°
2026-05-07 19:27 41.95227 -86.60196 25859 ft 484 kts 87°
2026-05-07 19:27 41.95288 -86.55653 26229 ft 489 kts 87°
2026-05-07 19:27 41.95344 -86.51055 26555 ft 495 kts 88°
2026-05-07 19:28 41.95396 -86.46409 26900 ft 500 kts 88°
2026-05-07 19:28 41.95442 -86.41718 27254 ft 505 kts 88°
2026-05-07 19:28 41.95486 -86.37039 27610 ft 509 kts 88°
2026-05-07 19:28 41.95530 -86.32267 27946 ft 514 kts 88°
2026-05-07 19:29 41.95575 -86.27444 28297 ft 518 kts 88°
2026-05-07 19:29 41.95477 -86.22580 28629 ft 523 kts 95°
2026-05-07 19:29 41.94912 -86.17735 28967 ft 527 kts 104°
2026-05-07 19:29 41.93986 -86.12963 29357 ft 528 kts 107°
2026-05-07 19:30 41.93035 -86.08179 29694 ft 532 kts 107°
2026-05-07 19:30 41.92080 -86.03349 30011 ft 536 kts 107°
2026-05-07 19:30 41.91120 -85.98485 30157 ft 542 kts 108°
2026-05-07 19:30 41.90148 -85.93572 30327 ft 548 kts 108°
2026-05-07 19:31 41.89163 -85.88604 30595 ft 550 kts 108°
2026-05-07 19:31 41.88188 -85.83702 30887 ft 552 kts 108°
2026-05-07 19:31 41.87195 -85.78710 31192 ft 554 kts 108°
2026-05-07 19:31 41.86198 -85.73721 31487 ft 555 kts 108°
2026-05-07 19:32 41.85198 -85.68726 31919 ft 553 kts 108°
2026-05-07 19:32 41.84200 -85.63750 32354 ft 551 kts 108°
2026-05-07 19:32 41.83203 -85.58797 32800 ft 549 kts 108°
2026-05-07 19:32 41.82205 -85.53855 33250 ft 547 kts 108°
2026-05-07 19:33 41.81208 -85.48939 33701 ft 546 kts 108°
2026-05-07 19:33 41.80213 -85.44039 34127 ft 544 kts 108°
2026-05-07 19:33 41.79220 -85.39141 34481 ft 543 kts 108°
2026-05-07 19:33 41.78230 -85.34259 34814 ft 543 kts 108°
2026-05-07 19:34 41.77250 -85.29437 35144 ft 542 kts 108°
2026-05-07 19:34 41.76253 -85.24559 35474 ft 542 kts 108°
2026-05-07 19:34 41.75254 -85.19698 35802 ft 541 kts 109°
2026-05-07 19:34 41.74251 -85.14844 36117 ft 540 kts 109°
2026-05-07 19:35 41.73247 -85.09990 36436 ft 540 kts 109°
2026-05-07 19:35 41.72244 -85.05157 36739 ft 539 kts 109°
2026-05-07 19:35 41.71235 -85.00309 37008 ft 540 kts 109°
2026-05-07 19:35 41.70226 -84.95462 37252 ft 540 kts 109°
2026-05-07 19:36 41.69219 -84.90619 37506 ft 540 kts 109°
2026-05-07 19:36 41.68212 -84.85779 37767 ft 540 kts 109°
2026-05-07 19:36 41.67224 -84.80937 38014 ft 541 kts 105°
2026-05-07 19:36 41.66581 -84.75975 38246 ft 543 kts 97°
2026-05-07 19:37 41.66338 -84.70936 38466 ft 543 kts 94°
2026-05-07 19:37 41.66133 -84.65886 38679 ft 543 kts 94°
2026-05-07 19:37 41.65925 -84.60845 38842 ft 543 kts 94°
2026-05-07 19:37 41.65711 -84.55804 38963 ft 543 kts 94°
2026-05-07 19:38 41.65269 -84.45805 39000 ft 542 kts 94°
2026-05-07 19:38 41.64815 -84.35750 39000 ft 542 kts 94°
2026-05-07 19:39 41.64356 -84.25700 38993 ft 541 kts 94°
2026-05-07 19:39 41.63964 -84.17280 38999 ft 541 kts 94°
2026-05-07 19:40 41.63411 -84.05614 38996 ft 541 kts 94°
2026-05-07 19:40 41.62932 -83.95582 38996 ft 541 kts 95°
2026-05-07 19:41 41.62438 -83.85550 39000 ft 541 kts 95°
2026-05-07 19:41 41.61935 -83.75529 39006 ft 540 kts 95°
2026-05-07 19:42 41.61431 -83.65501 39003 ft 540 kts 95°
2026-05-07 19:42 41.60098 -83.55700 39002 ft 534 kts 110°
2026-05-07 19:43 41.57946 -83.46180 38974 ft 535 kts 110°
2026-05-07 19:43 41.55823 -83.36707 38975 ft 535 kts 110°
2026-05-07 19:44 41.53688 -83.27176 38976 ft 536 kts 110°
2026-05-07 19:44 41.51541 -83.17639 38978 ft 536 kts 110°
2026-05-07 19:45 41.49379 -83.08115 38974 ft 536 kts 111°
2026-05-07 19:45 41.47206 -82.98605 38984 ft 536 kts 111°
2026-05-07 19:46 41.45390 -82.90698 38987 ft 536 kts 111°
2026-05-07 19:46 41.43204 -82.81202 38985 ft 536 kts 111°
2026-05-07 19:47 41.41009 -82.71716 38973 ft 535 kts 111°
2026-05-07 19:47 41.38398 -82.62501 38982 ft 526 kts 124°
2026-05-07 19:48 41.34250 -82.54718 38987 ft 507 kts 142°
2026-05-07 19:48 41.29325 -82.48033 38962 ft 506 kts 143°
2026-05-07 19:49 41.24392 -82.41337 38968 ft 507 kts 143°
2026-05-07 19:49 41.19455 -82.34646 38972 ft 507 kts 143°
2026-05-07 19:50 41.14505 -82.27961 38981 ft 507 kts 143°
2026-05-07 19:50 41.09585 -82.21324 38987 ft 508 kts 143°
2026-05-07 19:51 41.04608 -82.14637 38963 ft 510 kts 144°
2026-05-07 19:51 40.99612 -82.07931 38966 ft 512 kts 144°
2026-05-07 19:52 40.94604 -82.01226 38969 ft 512 kts 144°
2026-05-07 19:52 40.89585 -81.94525 38973 ft 512 kts 144°
2026-05-07 19:53 40.84567 -81.87840 38948 ft 513 kts 144°
2026-05-07 19:53 40.79536 -81.81153 38954 ft 514 kts 144°
2026-05-07 19:54 40.74494 -81.74467 38968 ft 515 kts 144°
2026-05-07 19:54 40.69439 -81.67773 38972 ft 515 kts 144°
2026-05-07 19:55 40.64373 -81.61090 38956 ft 515 kts 144°
2026-05-07 19:55 40.59302 -81.54410 38928 ft 515 kts 145°
2026-05-07 19:56 40.54227 -81.47742 38943 ft 516 kts 145°
2026-05-07 19:56 40.49145 -81.41070 38955 ft 516 kts 145°
2026-05-07 19:57 40.44060 -81.34411 38956 ft 517 kts 145°
2026-05-07 19:57 40.38995 -81.27803 38961 ft 517 kts 145°
2026-05-07 19:58 40.33892 -81.21158 38975 ft 516 kts 144°
2026-05-07 19:58 40.28794 -81.14535 38977 ft 516 kts 145°
2026-05-07 19:59 40.23686 -81.07915 38974 ft 515 kts 145°
2026-05-07 19:59 40.18588 -81.01324 38966 ft 515 kts 145°
2026-05-07 20:00 40.13520 -80.94790 38960 ft 515 kts 146°
2026-05-07 20:00 40.08418 -80.88220 38915 ft 516 kts 146°
2026-05-07 20:01 40.03294 -80.81634 38932 ft 517 kts 146°
2026-05-07 20:01 39.98236 -80.74919 38931 ft 520 kts 143°
2026-05-07 20:02 39.93256 -80.68039 38941 ft 521 kts 143°
2026-05-07 20:02 39.88267 -80.61170 38937 ft 521 kts 143°
2026-05-07 20:03 39.83247 -80.54372 38901 ft 521 kts 143°
2026-05-07 20:03 39.78212 -80.47605 38918 ft 520 kts 144°
2026-05-07 20:04 39.73217 -80.40896 38937 ft 520 kts 143°
2026-05-07 20:04 39.68195 -80.34143 38939 ft 519 kts 143°
2026-05-07 20:05 39.63170 -80.27410 38950 ft 519 kts 144°
2026-05-07 20:05 39.58143 -80.20700 38828 ft 522 kts 144°
2026-05-07 20:06 39.55589 -80.17306 38606 ft 530 kts 144°
2026-05-07 20:06 39.53006 -80.13868 38324 ft 533 kts 144°
2026-05-07 20:06 39.50418 -80.10411 37589 ft 537 kts 144°
2026-05-07 20:06 39.47829 -80.06949 37172 ft 532 kts 144°
2026-05-07 20:07 39.45268 -80.03523 36640 ft 529 kts 144°
2026-05-07 20:07 39.42669 -80.00072 35352 ft 543 kts 144°
2026-05-07 20:07 39.40006 -79.96564 34645 ft 542 kts 145°
2026-05-07 20:07 39.37387 -79.93099 34010 ft 536 kts 144°
2026-05-07 20:08 39.34792 -79.89650 33084 ft 533 kts 144°
2026-05-07 20:08 39.32407 -79.85918 32101 ft 546 kts 132°
2026-05-07 20:08 39.30538 -79.81677 31261 ft 555 kts 120°
2026-05-07 20:08 39.29268 -79.76991 30889 ft 550 kts 108°
2026-05-07 20:09 39.28611 -79.72153 30768 ft 547 kts 99°
2026-05-07 20:09 39.28206 -79.67290 30557 ft 543 kts 99°
2026-05-07 20:09 39.27803 -79.62462 30321 ft 539 kts 99°
2026-05-07 20:10 39.27019 -79.52889 29815 ft 534 kts 99°
2026-05-07 20:10 39.26635 -79.48137 29532 ft 531 kts 98°
2026-05-07 20:10 39.26254 -79.43404 29249 ft 528 kts 98°
2026-05-07 20:10 39.25873 -79.38704 28959 ft 526 kts 99°
2026-05-07 20:11 39.25493 -79.34021 28686 ft 524 kts 99°
2026-05-07 20:11 39.25113 -79.29358 28437 ft 521 kts 99°
2026-05-07 20:11 39.24731 -79.24730 27970 ft 517 kts 99°
2026-05-07 20:11 39.24347 -79.20138 27464 ft 513 kts 99°
2026-05-07 20:12 39.23957 -79.15563 26898 ft 509 kts 99°
2026-05-07 20:12 39.23573 -79.11060 26338 ft 502 kts 100°
2026-05-07 20:12 39.23194 -79.06602 25737 ft 497 kts 99°
2026-05-07 20:12 39.22816 -79.02196 25194 ft 492 kts 100°
2026-05-07 20:13 39.22440 -78.97879 24755 ft 488 kts 100°
2026-05-07 20:13 39.22058 -78.93550 24175 ft 484 kts 100°
2026-05-07 20:13 39.21661 -78.89281 23759 ft 476 kts 101°
2026-05-07 20:13 39.21249 -78.85060 23201 ft 472 kts 100°
2026-05-07 20:14 39.20828 -78.80880 22634 ft 468 kts 101°
2026-05-07 20:14 39.20410 -78.76743 22096 ft 463 kts 101°
2026-05-07 20:14 39.20001 -78.72648 21593 ft 457 kts 101°
2026-05-07 20:14 39.19603 -78.68594 20963 ft 455 kts 100°
2026-05-07 20:15 39.19212 -78.64568 20412 ft 451 kts 101°
2026-05-07 20:15 39.18823 -78.60578 19899 ft 445 kts 101°
2026-05-07 20:15 39.18438 -78.56631 19401 ft 441 kts 101°
2026-05-07 20:15 39.18050 -78.52721 18914 ft 438 kts 101°
2026-05-07 20:16 39.17659 -78.48844 18419 ft 435 kts 101°
2026-05-07 20:16 39.17270 -78.44996 17905 ft 432 kts 101°
2026-05-07 20:16 39.16884 -78.41181 17412 ft 427 kts 101°
2026-05-07 20:16 39.16481 -78.37419 17062 ft 420 kts 104°
2026-05-07 20:17 39.15747 -78.33821 16647 ft 411 kts 113°
2026-05-07 20:17 39.14879 -78.30336 16280 ft 408 kts 113°
2026-05-07 20:17 39.14016 -78.26867 15912 ft 405 kts 113°
2026-05-07 20:17 39.13156 -78.23430 15538 ft 401 kts 113°
2026-05-07 20:18 39.12306 -78.20023 15170 ft 398 kts 113°
2026-05-07 20:18 39.11465 -78.16647 14812 ft 395 kts 113°
2026-05-07 20:18 39.10627 -78.13294 14452 ft 391 kts 113°
2026-05-07 20:18 39.09798 -78.09972 14097 ft 388 kts 113°
2026-05-07 20:19 39.08969 -78.06684 13745 ft 385 kts 113°
2026-05-07 20:19 39.08151 -78.03467 13369 ft 381 kts 113°
2026-05-07 20:19 39.07323 -78.00238 13021 ft 378 kts 113°
2026-05-07 20:19 39.06497 -77.97032 12687 ft 375 kts 113°
2026-05-07 20:20 39.05678 -77.93860 12338 ft 373 kts 113°
2026-05-07 20:20 39.04872 -77.90739 12152 ft 361 kts 113°
2026-05-07 20:20 39.04102 -77.87726 12014 ft 349 kts 113°
2026-05-07 20:20 39.03352 -77.84790 11755 ft 343 kts 113°
2026-05-07 20:21 39.02610 -77.81901 11595 ft 340 kts 113°
2026-05-07 20:21 39.01868 -77.79030 11338 ft 337 kts 112°
2026-05-07 20:21 39.01129 -77.76178 11053 ft 335 kts 112°
2026-05-07 20:21 39.00394 -77.73339 10774 ft 334 kts 112°
2026-05-07 20:22 38.99660 -77.70516 10498 ft 332 kts 112°
2026-05-07 20:22 38.98932 -77.67702 10224 ft 331 kts 111°
2026-05-07 20:22 38.98204 -77.64903 9943 ft 329 kts 111°
2026-05-07 20:22 38.97431 -77.62129 9506 ft 330 kts 113°
2026-05-07 20:23 38.96631 -77.59418 9330 ft 319 kts 114°
2026-05-07 20:23 38.95835 -77.56778 8963 ft 315 kts 114°
2026-05-07 20:23 38.95119 -77.54131 8605 ft 313 kts 104°
2026-05-07 20:23 38.94920 -77.51403 8282 ft 309 kts 86°
2026-05-07 20:24 38.95316 -77.48697 7969 ft 302 kts 68°
2026-05-07 20:24 38.96119 -77.46239 7661 ft 296 kts 63°
2026-05-07 20:24 38.96931 -77.43834 7374 ft 291 kts 64°
2026-05-07 20:24 38.97724 -77.41464 7053 ft 287 kts 64°
2026-05-07 20:25 38.98493 -77.39158 6766 ft 282 kts 64°
2026-05-07 20:25 38.99259 -77.36863 6481 ft 277 kts 64°
2026-05-07 20:25 39.00012 -77.34607 6182 ft 270 kts 64°
2026-05-07 20:25 39.00735 -77.32436 6050 ft 258 kts 64°
2026-05-07 20:26 39.01424 -77.30369 5903 ft 247 kts 64°
2026-05-07 20:26 39.02111 -77.28314 5246 ft 256 kts 64°
2026-05-07 20:26 39.02734 -77.26116 4596 ft 267 kts 79°
2026-05-07 20:26 39.02617 -77.23748 4207 ft 268 kts 107°
2026-05-07 20:27 39.01685 -77.21734 3980 ft 259 kts 134°
2026-05-07 20:27 39.00415 -77.20181 3848 ft 246 kts 137°
2026-05-07 20:27 38.99185 -77.18712 3631 ft 237 kts 137°
2026-05-07 20:27 38.97993 -77.17310 3394 ft 227 kts 138°
2026-05-07 20:28 38.96841 -77.15976 3150 ft 219 kts 139°
2026-05-07 20:28 38.95722 -77.14702 2903 ft 212 kts 139°
2026-05-07 20:28 38.94636 -77.13484 2720 ft 202 kts 139°
2026-05-07 20:28 38.93592 -77.12322 2451 ft 197 kts 140°
2026-05-07 20:29 38.92561 -77.11171 2159 ft 196 kts 140°
2026-05-07 20:29 38.91551 -77.09997 1864 ft 194 kts 133°
2026-05-07 20:29 38.90808 -77.08562 1459 ft 192 kts 115°
2026-05-07 20:29 38.90287 -77.07001 1062 ft 187 kts 114°
2026-05-07 20:30 38.89556 -77.05765 798 ft 164 kts 144°
2026-05-07 20:30 38.88689 -77.05004 607 ft 142 kts 150°
2026-05-07 20:30 38.87893 -77.04370 409 ft 130 kts 153°
2026-05-07 20:30 38.87064 -77.04000 273 ft 127 kts 168°
2026-05-07 20:31 38.86188 -77.03876 93 ft 125 kts 177°
2026-05-07 20:31 38.85627 -77.03825 37 ft 114 kts 177°
2026-05-07 20:31 38.84902 -77.03751 23 ft 25 kts 175°
2026-05-07 20:31 38.84813 -77.03742 24 ft 21 kts 176°
2026-05-07 20:32 38.84685 -77.03804 25 ft 16 kts 226°
2026-05-07 20:32 38.84732 -77.03875 25 ft 14 kts 359°
2026-05-07 20:32 38.84840 -77.03885 22 ft 18 kts 356°
2026-05-07 20:32 38.84971 -77.03895 21 ft 20 kts 353°
2026-05-07 20:33 38.85110 -77.03912 22 ft 20 kts 355°
2026-05-07 20:33 38.85259 -77.03928 21 ft 23 kts 354°
2026-05-07 20:33 38.85340 -77.03958 23 ft 9 kts 292°
2026-05-07 20:33 38.85382 -77.03999 24 ft 9 kts 354°
2026-05-07 20:34 38.85425 -77.04036 25 ft 8 kts 277°
2026-05-07 20:34 38.85423 -77.04063 25 ft 3 kts 266°
2026-05-07 20:34 38.85422 -77.04079 25 ft 0 kts 267°